Flag for Switzerland Weather past 2 weeks in La-Chaux-de-Fonds, Neuchâtel, Switzerland

Now
36 °F

Passing clouds.


Feels Like: 36 °F
Forecast: 30 / 46 °F
Wind: 1 mph from Northwest

Location: Les Eplatures

Current Time: Oct 23, 2014 at 6:40:19 AM

Latest Report: Oct 23, 2014 at 6:20 AM


Visibility: N/A

Pressure: 30.24 "Hg

Humidity: 100%

Dew point: 36 °F

Location of La-Chaux-de-FondsLocation

Historic Weather in La-Chaux-de-Fonds — Graph

°F

La-Chaux-de-Fonds temperature yesterday

Maximum temperature yesterday: 39 °F (at 12:20 AM)
Minimum temperature yesterday: 34 °F (at 8:20 AM)
Average temperature yesterday: 36 °F

Past Weeks' High & Low Weather Summary

 TemperatureHumidityPressure
High72 °F (Oct 19, 1:50 PM)100% (Oct 8, 5:50 AM)30.30 "Hg (Oct 8, 5:50 AM)
Low34 °F (Oct 22, 8:20 AM)40% (Oct 9, 1:50 PM)29.80 "Hg (Oct 13, 4:50 AM)
Average53 °F88%30.02 "Hg
* Reported Oct 8 5:20 AM — Oct 23 5:20 AM, La-Chaux-de-Fonds, Weather by CustomWeather, © 2014

Note: Actual official high and low records may vary slightly from our data, if they occured in-between our weather recording intervals... More about our weather records

Advertising

La-Chaux-de-Fonds weather history for previous 24 hours

 ConditionsComfort  
Time TempWeatherWind HumidityBarometerVisibility
5:20 AM
Oct 23
36 °FPassing clouds.1 mph100%30.27 "HgN/A
4:50 AM34 °FSnow flurries. Passing clouds.1 mph100%30.27 "Hg2 mi
4:20 AM34 °FLight snow. Partly cloudy.1 mph100%30.27 "Hg3 mi
3:50 AM36 °FRain. Fog.5 mph93%30.27 "Hg2 mi
3:20 AM36 °FSprinkles. Fog.3 mph100%30.27 "Hg2 mi
2:50 AM36 °FMostly cloudy.2 mph100%30.27 "HgN/A
2:20 AM34 °FLight snow. Partly cloudy.3 mph100%30.27 "Hg4 mi
1:50 AM37 °FSprinkles. Fog.3 mph93%30.27 "Hg2 mi
1:20 AM37 °FPartly cloudy.3 mph93%30.27 "HgN/A
12:50 AM36 °FLow clouds.3 mph100%30.27 "HgN/A
12:20 AM36 °FLight rain. Passing clouds.3 mph100%30.27 "HgN/A
11:50 PM
Oct 22
36 °FLight rain. Passing clouds.3 mph100%30.27 "HgN/A
11:20 PM36 °FLight rain. Fog.7 mph100%30.27 "Hg2 mi
10:50 PM36 °FLow clouds.7 mph100%30.27 "HgN/A
10:20 PM34 °FPassing clouds.5 mph100%30.27 "HgN/A
9:50 PM34 °FPartly cloudy.6 mph100%30.24 "HgN/A
9:20 PM36 °FSprinkles. Partly cloudy.6 mph93%30.24 "HgN/A
8:50 PM36 °FSprinkles. Partly cloudy.5 mph93%30.24 "Hg3 mi
8:20 PM36 °FBroken clouds.7 mph93%30.24 "HgN/A
7:50 PM36 °FSprinkles. Fog.6 mph100%30.24 "Hg2 mi
7:20 PM36 °FLow clouds.6 mph93%30.21 "HgN/A
6:50 PM36 °FSprinkles. Broken clouds.7 mph93%30.21 "HgN/A
6:20 PM36 °FPartly sunny.8 mph93%30.21 "HgN/A
5:50 PM36 °FBroken clouds.7 mph93%30.18 "HgN/A
5:20 PM36 °FScattered showers. Partly sunny.8 mph93%30.18 "HgN/A
4:20 PM36 °FScattered showers. Broken clouds.7 mph93%30.18 "HgN/A
3:50 PM36 °FSprinkles. Broken clouds.7 mph93%30.21 "HgN/A
3:20 PM37 °FBroken clouds.6 mph93%30.21 "HgN/A
2:50 PM36 °FSnow flurries. Partly sunny.7 mph93%30.21 "Hg3 mi
2:20 PM37 °FSprinkles. Broken clouds.8 mph87%30.21 "HgN/A
1:50 PM36 °FSprinkles. Broken clouds.5 mph87%30.21 "HgN/A
1:20 PM34 °FSnow flurries. Partly sunny.7 mph93%30.21 "Hg4 mi
12:50 PM36 °FSnow flurries. Partly sunny.8 mph87%30.21 "Hg4 mi
12:20 PM34 °FSnow. Mostly cloudy.7 mph87%30.21 "Hg1 mi
11:50 AM34 °FLight snow. Broken clouds.5 mph87%30.21 "Hg3 mi
11:20 AM34 °FLight snow. Partly sunny.5 mph87%30.21 "HgN/A
10:50 AM34 °FLight snow. Partly sunny.3 mph87%30.21 "HgN/A
10:20 AM34 °FLight snow. Partly sunny.10 mph87%30.18 "Hg3 mi
9:50 AM34 °FSnow flurries. Passing clouds.2 mph93%30.18 "HgN/A
9:20 AM34 °FSnow flurries. Fog.5 mph93%30.15 "Hg4 mi
8:50 AM34 °FSnow flurries. Passing clouds.5 mph87%30.15 "Hg3 mi
8:20 AM34 °FSnow flurries. Mostly cloudy.7 mph93%30.15 "HgN/A
7:50 AM36 °FSnow flurries. Partly cloudy.7 mph93%30.12 "HgN/A
7:20 AM36 °FSprinkles. Partly cloudy.8 mph93%30.12 "HgN/A
6:50 AM36 °FSprinkles. Passing clouds.9 mph93%30.12 "HgN/A
6:20 AM36 °FPassing clouds.7 mph93%30.09 "HgN/A
Weather by CustomWeather, © 2014

See weather overviewHow to use our weather pages